DW0282 Mechanicsville MD US current weather conditions

sailwx.info

Wind from 207

Air temperature 22.8° C
Dewpoint 16.6° C

Last reported at 2020-Oct-01 15:03 UTC.
Time now 2020-Oct-01 16:09 UTC

Location: N 38°24' W 076°40'.
View on Google Maps.

See reports from other nearby stations

  
Tides and Currents Weather Stations Pressure Air Temp Water Temp Dewpoint Dewpoint Depression Visibility Wind Speed Wind Dir Waves Ship Positions
date/time (UTC)wind fromknots sea level pressurealtimeterstation pressurevisibilityair tempwater tempwave heightnotes
2020-Oct-01 15:03 207 22.8
2020-Oct-01 14:53 196 22.2
2020-Oct-01 14:48 206 21.7
2020-Oct-01 14:43 216 21.7
2020-Oct-01 14:38 147 21.1
2020-Oct-01 14:33 321 0 gusting 4 21.1
2020-Oct-01 14:28 200 21.1
2020-Oct-01 14:23 191 21.1
2020-Oct-01 14:18 301 20.6
2020-Oct-01 14:13 323 20.6
2020-Oct-01 14:08 239 20.6
2020-Oct-01 14:03 304 0 gusting 4 20.0
2020-Oct-01 13:58 209 20.0
2020-Oct-01 13:53 138 20.0
2020-Oct-01 13:48 319 19.4
2020-Oct-01 13:43 215 19.4
2020-Oct-01 13:38 204 18.9
2020-Oct-01 13:33 261 18.9
2020-Oct-01 13:28 178 18.3
2020-Oct-01 13:23 229 18.3
2020-Oct-01 13:18 209 17.8
2020-Oct-01 13:13 277 17.8
2020-Oct-01 13:08 192 17.2
2020-Oct-01 13:03 182 17.2
2020-Oct-01 12:58 215 16.7
2020-Oct-01 12:53 277 0 gusting 5 16.7
2020-Oct-01 12:48 197 16.1
2020-Oct-01 12:43 255 16.1
2020-Oct-01 12:38 194 15.6
2020-Oct-01 12:33 211 15.6
2020-Oct-01 12:28 243 15.0
2020-Oct-01 12:23 223 15.0
2020-Oct-01 12:18 200 14.4
2020-Oct-01 12:13 227 14.4
2020-Oct-01 12:08 225 13.9
2020-Oct-01 12:03 175 13.9
2020-Oct-01 11:58 175 13.9
2020-Oct-01 11:53 232 13.3
2020-Oct-01 11:48 178 13.3
2020-Oct-01 11:43 176 13.3
2020-Oct-01 11:38 184 13.3
2020-Oct-01 11:33 184 13.3
2020-Oct-01 11:28 184 13.3
2020-Oct-01 11:23 184 13.3
2020-Oct-01 11:18 184 13.3
2020-Oct-01 11:13 184 13.3
2020-Oct-01 11:08 184 13.3
2020-Oct-01 11:03 184 13.3
2020-Oct-01 10:58 184 13.3
2020-Oct-01 10:53 184 13.9
2020-Oct-01 10:48 184 13.9
2020-Oct-01 10:43 184 13.9
2020-Oct-01 10:38 196 13.9
2020-Oct-01 10:33 196 13.9
2020-Oct-01 10:28 153 13.9
2020-Oct-01 10:23 195 13.9
2020-Oct-01 10:18 173 13.9
2020-Oct-01 10:13 207 13.9
2020-Oct-01 10:08 188 13.9
2020-Oct-01 10:03 188 13.9
2020-Oct-01 09:58 189 13.9
2020-Oct-01 09:53 197 13.9
2020-Oct-01 09:48 197 13.9
2020-Oct-01 09:43 213 13.9
2020-Oct-01 09:38 213 13.9
2020-Oct-01 09:33 184 13.9
2020-Oct-01 09:28 184 13.9
2020-Oct-01 09:23 163 13.9
2020-Oct-01 09:18 205 13.9
2020-Oct-01 09:13 206 13.9
2020-Oct-01 09:08 206 13.9
2020-Oct-01 09:03 153 13.9
2020-Oct-01 08:58 204 13.9
2020-Oct-01 08:53 196 13.9
2020-Oct-01 08:48 197 13.9
2020-Oct-01 08:43 197 13.9
2020-Oct-01 08:38 191 13.9
2020-Oct-01 08:33 164 13.9
2020-Oct-01 08:28 164 14.4
2020-Oct-01 08:23 164 14.4
2020-Oct-01 08:18 157 14.4
2020-Oct-01 08:13 157 14.4
2020-Oct-01 08:08 205 14.4
2020-Oct-01 08:03 209 14.4
2020-Oct-01 07:58 175 14.4
2020-Oct-01 07:53 194 14.4
2020-Oct-01 07:48 194 14.4
2020-Oct-01 07:43 194 15.0
2020-Oct-01 07:38 194 15.0
2020-Oct-01 07:33 194 15.0
2020-Oct-01 07:28 213 15.0
2020-Oct-01 07:23 213 15.0
2020-Oct-01 07:18 207 15.0
2020-Oct-01 07:13 199 15.0
2020-Oct-01 07:08 198 15.0
2020-Oct-01 07:03 185 15.0
2020-Oct-01 06:58 188 15.6
2020-Oct-01 06:53 188 15.6
2020-Oct-01 06:48 217 15.6
2020-Oct-01 06:43 178 15.6
2020-Oct-01 06:38 178 15.6
2020-Oct-01 06:33 226 0 gusting 4 15.6
2020-Oct-01 06:28 203 15.6
2020-Oct-01 06:23 200 15.6
2020-Oct-01 06:18 186 15.6
2020-Oct-01 06:13 197 15.6
2020-Oct-01 06:08 171 15.6
2020-Oct-01 06:03 209 16.1
2020-Oct-01 05:58 210 16.1
2020-Oct-01 05:53 171 16.1
2020-Oct-01 05:48 221 0 gusting 8 15.6
2020-Oct-01 05:43 225 15.6
2020-Oct-01 05:38 196 15.6
2020-Oct-01 05:33 182 16.1
2020-Oct-01 05:28 200 16.1
2020-Oct-01 05:23 161 16.1
2020-Oct-01 05:18 173 16.1
2020-Oct-01 05:13 201 16.1
2020-Oct-01 05:08 205 16.1
2020-Oct-01 05:03 153 16.1
2020-Oct-01 04:58 220 16.1
2020-Oct-01 04:53 263 16.1
2020-Oct-01 04:48 184 0 gusting 6 16.1
2020-Oct-01 04:43 209 0 gusting 4 16.1
2020-Oct-01 04:38 138 0 gusting 4 16.1
2020-Oct-01 04:33 209 15.6
2020-Oct-01 04:28 211 15.6
2020-Oct-01 04:23 238 0 gusting 8 15.6
2020-Oct-01 04:18 162 0 gusting 8 15.6
2020-Oct-01 04:13 142 15.0
2020-Oct-01 04:08 255 15.0
2020-Oct-01 04:03 177 15.0
2020-Oct-01 03:58 180 15.0
2020-Oct-01 03:53 165 15.0
2020-Oct-01 03:48 163 15.0
2020-Oct-01 03:43 152 15.0
2020-Oct-01 03:38 152 15.0
2020-Oct-01 03:33 164 15.0
2020-Oct-01 03:28 175 15.0
2020-Oct-01 03:23 177 15.0
2020-Oct-01 03:18 215 14.4
2020-Oct-01 03:13 188 14.4
2020-Oct-01 03:08 196 14.4
2020-Oct-01 03:03 165 14.4
2020-Oct-01 02:58 178 13.9
2020-Oct-01 02:53 192 13.9
2020-Oct-01 02:48 194 13.9
2020-Oct-01 02:43 152 13.9
2020-Oct-01 02:38 108 13.9
2020-Oct-01 02:33 108 13.9
2020-Oct-01 02:28 130 13.9
2020-Oct-01 02:23 130 13.9
2020-Oct-01 02:18 130 13.9
2020-Oct-01 02:13 130 13.9
2020-Oct-01 02:08 130 13.9
2020-Oct-01 02:03 130 13.9
2020-Oct-01 01:58 130 13.9
2020-Oct-01 01:53 125 13.9
2020-Oct-01 01:48 125 13.9
2020-Oct-01 01:43 125 13.9
2020-Oct-01 01:38 125 13.9
2020-Oct-01 01:33 125 13.9
2020-Oct-01 01:28 125 13.9
2020-Oct-01 01:23 125 13.9
2020-Oct-01 01:18 125 13.9
2020-Oct-01 01:13 157 13.9
2020-Oct-01 01:08 157 13.9
2020-Oct-01 01:03 200 13.9
2020-Oct-01 00:58 200 13.9
2020-Oct-01 00:53 200 13.9
2020-Oct-01 00:48 200 13.9
2020-Oct-01 00:43 200 13.9
2020-Oct-01 00:38 200 14.4
2020-Oct-01 00:33 200 14.4
2020-Oct-01 00:28 200 14.4
2020-Oct-01 00:23 200 14.4
2020-Oct-01 00:18 200 14.4
2020-Oct-01 00:13 200 14.4
2020-Oct-01 00:08 200 15.0
2020-Oct-01 00:03 200 15.0
2020-Sep-30 23:58 200 15.0
2020-Sep-30 23:53 200 15.0
2020-Sep-30 23:48 200 15.0
2020-Sep-30 23:43 200 15.6
2020-Sep-30 23:38 200 15.6
2020-Sep-30 23:33 200 15.6
2020-Sep-30 23:28 200 16.1
2020-Sep-30 23:23 200 16.1
2020-Sep-30 23:18 200 16.7
2020-Sep-30 23:13 200 16.7
2020-Sep-30 23:08 200 16.7
2020-Sep-30 23:03 200 17.2
2020-Sep-30 22:58 200 17.2
2020-Sep-30 22:53 200 17.2
2020-Sep-30 22:48 200 17.8
2020-Sep-30 22:43 200 18.3
2020-Sep-30 22:38 200 18.3
2020-Sep-30 22:33 200 18.3
2020-Sep-30 22:28 200 18.9
2020-Sep-30 22:23 200 18.9
2020-Sep-30 22:18 193 18.9
2020-Sep-30 22:13 193 19.4
2020-Sep-30 22:08 193 19.4
2020-Sep-30 22:03 193 19.4
2020-Sep-30 21:58 190 19.4
2020-Sep-30 21:53 204 20.0
2020-Sep-30 21:48 201 20.0
2020-Sep-30 21:43 196 20.0
2020-Sep-30 21:38 185 20.6
2020-Sep-30 21:33 175 20.6
2020-Sep-30 21:28 173 20.6
2020-Sep-30 21:23 269 21.1
2020-Sep-30 21:18 306 0 gusting 6 21.1
2020-Sep-30 21:13 205 21.1
2020-Sep-30 21:08 194 0 gusting 5 21.1
2020-Sep-30 21:03 221 21.1
2020-Sep-30 20:58 200 1 gusting 8 21.1
2020-Sep-30 20:53 228 21.1
2020-Sep-30 20:48 190 0 gusting 6 21.7
2020-Sep-30 20:43 202 0 gusting 5 21.7
2020-Sep-30 20:38 237 0 gusting 5 21.7
2020-Sep-30 20:33 272 0 gusting 6 21.7
2020-Sep-30 20:28 202 0 gusting 4 21.7
2020-Sep-30 20:23 186 0 gusting 4 21.7
2020-Sep-30 20:18 202 21.7
2020-Sep-30 20:13 173 0 gusting 4 21.7
2020-Sep-30 20:08 246 0 gusting 4 21.7
2020-Sep-30 20:03 188 21.7
2020-Sep-30 19:58 186 2 gusting 6 22.2
2020-Sep-30 19:53 215 21.7
2020-Sep-30 19:48 267 21.7
2020-Sep-30 19:43 140 21.7
2020-Sep-30 19:38 166 21.7
2020-Sep-30 19:33 178 2 gusting 7 21.7
2020-Sep-30 19:28 217 0 gusting 6 21.7
2020-Sep-30 19:23 136 22.2
2020-Sep-30 19:18 150 0 gusting 5 22.2
2020-Sep-30 19:13 176 0 gusting 5 22.2
2020-Sep-30 19:08 309 22.2
2020-Sep-30 19:03 061 21.7
2020-Sep-30 18:58 265 21.7
2020-Sep-30 18:53 306 21.7
2020-Sep-30 18:48 224 21.7
2020-Sep-30 18:43 115 0 gusting 6 21.7
2020-Sep-30 18:38 250 0 gusting 4 21.7
2020-Sep-30 18:33 193 21.7
2020-Sep-30 18:28 252 0 gusting 10 21.7
2020-Sep-30 18:23 094 1 gusting 10 21.7
2020-Sep-30 18:18 160 0 gusting 6 21.7
2020-Sep-30 18:13 281 21.7
2020-Sep-30 18:08 182 21.7
2020-Sep-30 18:03 198 0 gusting 6 21.7
2020-Sep-30 17:58 197 21.7
2020-Sep-30 17:53 113 21.7
2020-Sep-30 17:48 251 1 gusting 5 21.7
2020-Sep-30 17:43 284 21.1
2020-Sep-30 17:38 180 21.1
2020-Sep-30 17:33 216 0 gusting 7 21.1
2020-Sep-30 17:28 150 21.1
2020-Sep-30 17:23 205 1 gusting 9 21.1
2020-Sep-30 17:18 163 2 gusting 9 21.1
2020-Sep-30 17:13 163 0 gusting 6 21.1
2020-Sep-30 17:08 113 21.1
2020-Sep-30 17:03 170 0 gusting 6 21.1
2020-Sep-30 16:58 360 0 gusting 6 21.1
2020-Sep-30 16:53 202 21.1
2020-Sep-30 16:48 265 0 gusting 6 21.1
2020-Sep-30 16:43 184 0 gusting 5 21.1
2020-Sep-30 16:38 065 0 gusting 6 20.6
2020-Sep-30 16:33 297 1 gusting 8 20.6
2020-Sep-30 16:28 202 0 gusting 8 20.6
2020-Sep-30 16:23 143 0 gusting 7 20.6
2020-Sep-30 16:18 211 0 gusting 7 20.6
2020-Sep-30 16:13 169 0 gusting 8 20.6
2020-Sep-30 16:08 111 20.6
2020-Sep-30 16:03 244 20.6
2020-Sep-30 15:58 254 0 gusting 10 20.6
2020-Sep-30 15:53 321 20.6
2020-Sep-30 15:48 355 20.0
2020-Sep-30 15:43 211 1 gusting 6 20.0
2020-Sep-30 15:38 323 20.0
2020-Sep-30 15:33 285 0 gusting 5 20.0
2020-Sep-30 15:28 198 0 gusting 5 20.0
2020-Sep-30 15:23 250 20.0
2020-Sep-30 15:18 189 1 gusting 4 20.0
2020-Sep-30 15:13 209 0 gusting 3 20.0
2020-Sep-30 15:08 307 19.4
2020-Sep-30 15:03 169 0 gusting 4 19.4
2020-Sep-30 14:58 304 19.4
2020-Sep-30 14:53 269 18.9
2020-Sep-30 14:48 255 1 gusting 6 18.9
2020-Sep-30 14:43 293 18.9
2020-Sep-30 14:38 235 1 gusting 6 18.9
2020-Sep-30 14:33 069 0 gusting 3 18.3
2020-Sep-30 14:28 036 0 gusting 5 18.3
2020-Sep-30 14:23 232 1 gusting 5 18.3
2020-Sep-30 14:18 091 0 gusting 4 17.8
2020-Sep-30 14:13 194 17.8
2020-Sep-30 14:08 259 1 gusting 7 17.8
2020-Sep-30 14:03 315 0 gusting 6 17.2
2020-Sep-30 13:58 316 1 gusting 6 17.2
2020-Sep-30 13:53 248 0 gusting 4 17.2
2020-Sep-30 13:48 076 17.2
2020-Sep-30 13:43 218 0 gusting 6 16.7
2020-Sep-30 13:38 275 0 gusting 5 16.7
2020-Sep-30 13:33 286 16.1
2020-Sep-30 13:28 288 16.1
2020-Sep-30 13:23 204 1 gusting 6 16.1
2020-Sep-30 13:18 184 16.1
2020-Sep-30 13:13 223 16.1
2020-Sep-30 13:08 169 15.6
2020-Sep-30 13:03 163 15.6
2020-Sep-30 12:58 170 15.6
2020-Sep-30 12:53 201 15.0
2020-Sep-30 12:48 213 15.0
2020-Sep-30 12:43 186 15.0
2020-Sep-30 12:38 168 14.4
2020-Sep-30 12:33 168 14.4
2020-Sep-30 12:28 235 13.9
2020-Sep-30 12:23 178 13.9
2020-Sep-30 12:18 165 13.9
2020-Sep-30 12:13 199 13.3
2020-Sep-30 12:08 199 13.3
2020-Sep-30 12:03 198 13.3
2020-Sep-30 11:58 194 13.3
2020-Sep-30 11:53 169 13.3
2020-Sep-30 11:48 169 13.3
2020-Sep-30 11:43 165 13.3
2020-Sep-30 11:38 165 13.3
2020-Sep-30 11:33 242 13.3
2020-Sep-30 11:28 184 13.3
2020-Sep-30 11:23 184 13.3
2020-Sep-30 11:18 196 13.3
2020-Sep-30 11:13 170 13.3
2020-Sep-30 11:08 184 13.3
2020-Sep-30 11:03 181 12.8
2020-Sep-30 10:58 181 12.8
2020-Sep-30 10:53 182 12.8
2020-Sep-30 10:48 178 12.8
2020-Sep-30 10:43 178 12.8
2020-Sep-30 10:38 177 12.8
2020-Sep-30 10:33 177 12.8
2020-Sep-30 10:28 177 12.8
2020-Sep-30 10:23 180 12.8
2020-Sep-30 10:18 180 12.8
2020-Sep-30 10:13 180 12.8
2020-Sep-30 10:08 182 12.8
2020-Sep-30 10:03 184 12.8
2020-Sep-30 09:58 183 12.8
2020-Sep-30 09:53 184 12.8
2020-Sep-30 09:48 190 12.8
2020-Sep-30 09:43 190 12.8
2020-Sep-30 09:38 190 12.8
2020-Sep-30 09:33 190 0 gusting 3 12.8
2020-Sep-30 09:28 171 12.8
2020-Sep-30 09:23 161 13.3
2020-Sep-30 09:18 140 13.3
2020-Sep-30 09:13 134 13.3
2020-Sep-30 09:08 333 13.3
2020-Sep-30 09:03 333 13.3
2020-Sep-30 08:58 329 13.3
2020-Sep-30 08:53 213 13.3
2020-Sep-30 08:48 211 13.3
2020-Sep-30 08:43 247 0 gusting 4 13.3
2020-Sep-30 08:38 005 0 gusting 3 13.3
2020-Sep-30 08:33 212 13.3
2020-Sep-30 08:28 213 0 gusting 7 13.3
2020-Sep-30 08:23 230 0 gusting 4 13.3
2020-Sep-30 08:18 349 0 gusting 6 13.3
2020-Sep-30 08:13 307 1 gusting 7 13.3
2020-Sep-30 08:08 295 0 gusting 7 13.3
2020-Sep-30 08:03 185 13.3
2020-Sep-30 07:58 268 0 gusting 2 13.9
2020-Sep-30 07:53 217 13.9
2020-Sep-30 07:48 355 13.9
2020-Sep-30 07:43 219 0 gusting 5 13.9
2020-Sep-30 07:38 149 13.9
2020-Sep-30 07:33 273 13.9
2020-Sep-30 07:28 292 13.9
2020-Sep-30 07:23 026 13.9
2020-Sep-30 07:18 212 13.9
2020-Sep-30 07:13 188 13.9
2020-Sep-30 07:08 213 13.9
2020-Sep-30 07:03 172 13.9
2020-Sep-30 06:58 161 0 gusting 3 13.9
2020-Sep-30 06:53 227 13.9
2020-Sep-30 06:48 210 13.9
2020-Sep-30 06:43 360 13.9
2020-Sep-30 06:38 360 13.9
2020-Sep-30 06:33 360 13.9
2020-Sep-30 06:28 360 13.9
2020-Sep-30 06:23 360 13.3
2020-Sep-30 06:18 360 13.3
2020-Sep-30 06:13 360 13.3
2020-Sep-30 06:08 360 13.3
2020-Sep-30 06:03 342 0 gusting 3 13.3
2020-Sep-30 05:58 336 13.3
2020-Sep-30 05:53 050 13.3
2020-Sep-30 05:48 051 13.3
2020-Sep-30 05:43 005 13.3
2020-Sep-30 05:38 005 13.3
2020-Sep-30 05:33 005 13.3
2020-Sep-30 05:28 331 13.3
2020-Sep-30 05:23 355 0 gusting 4 13.3
2020-Sep-30 05:18 355 0 gusting 4 13.3
2020-Sep-30 05:13 331 2 gusting 6 13.3
2020-Sep-30 05:08 346 4 gusting 7 13.3
2020-Sep-30 05:03 011 4 gusting 7 13.3
2020-Sep-30 04:58 337 3 gusting 8 13.3
2020-Sep-30 04:53 323 4 gusting 9 13.3
2020-Sep-30 04:48 298 3 gusting 10 13.3
2020-Sep-30 04:43 334 3 gusting 10 13.3
2020-Sep-30 04:38 322 2 gusting 9 13.3
2020-Sep-30 04:33 297 4 gusting 9 13.3
2020-Sep-30 04:28 301 4 gusting 8 13.3
2020-Sep-30 04:23 298 3 gusting 8 13.3
2020-Sep-30 04:18 292 2 gusting 10 13.3
2020-Sep-30 04:13 346 5 gusting 13 13.3
2020-Sep-30 04:08 298 5 gusting 13 13.3
2020-Sep-30 04:03 315 6 gusting 11 13.3
2020-Sep-30 03:58 328 3 gusting 9 13.3
2020-Sep-30 03:53 281 4 gusting 10 13.3
2020-Sep-30 03:48 333 2 gusting 14 13.3
2020-Sep-30 03:43 333 8 gusting 14 13.3
2020-Sep-30 03:38 317 4 gusting 12 13.9
2020-Sep-30 03:33 288 6 gusting 12 13.9
2020-Sep-30 03:28 319 7 gusting 13 13.9
2020-Sep-30 03:23 274 7 gusting 13 13.9
2020-Sep-30 03:18 313 4 gusting 11 13.9
2020-Sep-30 03:13 317 5 gusting 12 14.4
2020-Sep-30 03:08 297 5 gusting 12 14.4
2020-Sep-30 03:03 257 5 gusting 10 14.4
2020-Sep-30 02:58 290 4 gusting 9 14.4
2020-Sep-30 02:53 311 3 gusting 9 14.4
2020-Sep-30 02:48 311 1 gusting 8 15.0
2020-Sep-30 02:43 298 2 gusting 7 15.0
2020-Sep-30 02:38 317 3 gusting 12 15.0
2020-Sep-30 02:33 314 6 gusting 18 15.0
2020-Sep-30 02:28 360 8 gusting 18 15.6
2020-Sep-30 02:23 305 0 gusting 10 15.6
2020-Sep-30 02:18 304 2 gusting 10 16.1
2020-Sep-30 02:13 306 0 gusting 7 16.1
2020-Sep-30 02:08 288 2 gusting 9 16.1
2020-Sep-30 02:03 338 16.1
2020-Sep-30 01:58 327 2 gusting 8 16.7
2020-Sep-30 01:53 317 2 gusting 7 16.7
2020-Sep-30 01:48 321 16.7
2020-Sep-30 01:43 304 0 gusting 9 16.7
2020-Sep-30 01:38 276 1 gusting 9 17.2
2020-Sep-30 01:33 307 4 gusting 11 17.2
2020-Sep-30 01:28 300 3 gusting 15 17.2
2020-Sep-30 01:23 312 6 gusting 15 17.8
2020-Sep-30 01:18 227 6 gusting 15 17.8
2020-Sep-30 01:13 341 8 gusting 17 18.3
2020-Sep-30 01:08 302 7 gusting 17 18.9
2020-Sep-30 01:03 294 20.0
2020-Sep-30 00:58 355 0 gusting 10 20.6
2020-Sep-30 00:53 325 21.1
2020-Sep-30 00:48 336 5 gusting 12 21.7
2020-Sep-30 00:43 136 22.8
2020-Sep-30 00:38 136 22.8
2020-Sep-30 00:33 136 22.8
2020-Sep-30 00:28 136 22.8
2020-Sep-30 00:23 136 22.8
2020-Sep-30 00:18 119 22.8
2020-Sep-30 00:13 149 22.8
2020-Sep-30 00:08 182 22.8
2020-Sep-30 00:03 188 22.8
2020-Sep-29 23:58 132 22.8
2020-Sep-29 23:53 199 22.8
2020-Sep-29 23:48 183 22.8
2020-Sep-29 23:43 188 22.8
2020-Sep-29 23:38 191 23.3
2020-Sep-29 23:33 180 23.3
2020-Sep-29 23:28 188 23.3
2020-Sep-29 23:23 113 23.3
2020-Sep-29 23:18 114 23.3
2020-Sep-29 23:13 176 23.3
2020-Sep-29 23:08 097 23.3
2020-Sep-29 23:03 183 23.3
2020-Sep-29 22:58 131 23.3
2020-Sep-29 22:53 128 23.3
2020-Sep-29 22:48 073 23.3
2020-Sep-29 22:43 114 0 gusting 7 23.3
2020-Sep-29 22:38 059 23.3
2020-Sep-29 22:33 144 0 gusting 5 23.3
2020-Sep-29 22:28 142 0 gusting 5 23.3
2020-Sep-29 22:23 120 23.3
2020-Sep-29 22:18 153 23.9
2020-Sep-29 22:13 198 23.9
2020-Sep-29 22:08 084 23.9
2020-Sep-29 22:03 199 23.9
2020-Sep-29 21:58 105 23.9
2020-Sep-29 21:53 175 0 gusting 5 23.9
2020-Sep-29 21:48 140 23.9
2020-Sep-29 21:43 138 24.4
2020-Sep-29 21:38 094 0 gusting 6 24.4
2020-Sep-29 21:33 151 24.4
2020-Sep-29 21:28 128 24.4
2020-Sep-29 21:23 136 24.4
2020-Sep-29 21:18 145 24.4
2020-Sep-29 21:13 153 24.4
2020-Sep-29 21:08 138 24.4
2020-Sep-29 21:03 136 24.4
2020-Sep-29 20:58 111 24.4
2020-Sep-29 20:53 118 25.0
2020-Sep-29 20:48 175 25.0
2020-Sep-29 20:43 190 25.0
2020-Sep-29 20:38 144 25.0
2020-Sep-29 20:33 126 25.0
2020-Sep-29 20:28 192 25.0
2020-Sep-29 20:23 103 25.0
2020-Sep-29 20:18 120 0 gusting 3 25.6
2020-Sep-29 20:13 080 25.6
2020-Sep-29 20:08 137 25.6
2020-Sep-29 20:03 083 25.6
2020-Sep-29 19:58 204 25.6
2020-Sep-29 19:53 171 25.6
2020-Sep-29 19:48 112 0 gusting 6 26.1
2020-Sep-29 19:43 120 26.1
2020-Sep-29 19:38 095 0 gusting 5 26.1
2020-Sep-29 19:33 113 26.1
2020-Sep-29 19:28 161 26.1
2020-Sep-29 19:23 157 26.1
2020-Sep-29 19:18 198 26.1
2020-Sep-29 19:13 225 26.1
2020-Sep-29 19:08 124 26.1
2020-Sep-29 19:03 190 0 gusting 6 26.1
2020-Sep-29 18:58 135 26.1
2020-Sep-29 18:53 106 26.7
2020-Sep-29 18:48 184 0 gusting 6 26.7
2020-Sep-29 18:43 146 26.1
2020-Sep-29 18:38 223 0 gusting 4 25.6
2020-Sep-29 18:33 283 25.6
2020-Sep-29 18:28 189 25.6
2020-Sep-29 18:23 104 25.6
2020-Sep-29 18:18 109 25.6
2020-Sep-29 18:13 116 25.6
2020-Sep-29 18:08 113 25.6
2020-Sep-29 18:03 155 25.6
2020-Sep-29 17:58 179 25.6
2020-Sep-29 17:53 236 25.6
2020-Sep-29 17:48 191 25.6
2020-Sep-29 17:43 134 25.6
2020-Sep-29 17:38 101 25.0
2020-Sep-29 17:33 194 25.0
2020-Sep-29 17:28 185 25.0
2020-Sep-29 17:23 101 1 gusting 8 25.6
2020-Sep-29 17:18 180 0 gusting 6 25.6
2020-Sep-29 17:13 119 25.6
2020-Sep-29 17:08 202 25.0
2020-Sep-29 17:03 205 25.0
2020-Sep-29 16:58 217 25.0
2020-Sep-29 16:53 182 25.0
2020-Sep-29 16:48 085 25.0
2020-Sep-29 16:43 201 25.0
2020-Sep-29 16:38 246 24.4
2020-Sep-29 16:33 096 25.0
2020-Sep-29 16:28 130 24.4
2020-Sep-29 16:23 117 24.4
2020-Sep-29 16:18 198 24.4
2020-Sep-29 16:13 146 25.0
2020-Sep-29 16:08 124 24.4
2020-Sep-29 16:03 216 24.4